N615BW KIAH-KLIT

Flight info

Callsign N615BW
Flight time 0h 59m
Altitude 45000
Route INDIE8 TPAKK DCT LIT DCT
Aircraft C700/M-SBDGHM1RWXY/LB2

Departure

Time 2026-05-05 19:37
Airport George Bush Intercontinental Airport (KIAH)

Arrival

Time 2026-05-05 20:37
Airport Bill & Hillary Clinton National Airport/Adams Field (KLIT)
Time Latitude Longitude Altitude Speed Heading
2026-05-05 19:26 29.97463 -95.35663 94 ft 0 kts 330°
2026-05-05 19:29 29.97462 -95.35663 94 ft 2 kts 330°
2026-05-05 19:29 29.97448 -95.35659 95 ft 0 kts 48°
2026-05-05 19:33 29.97458 -95.35632 95 ft 10 kts 66°
2026-05-05 19:33 29.97499 -95.35537 94 ft 8 kts 57°
2026-05-05 19:34 29.97577 -95.35550 95 ft 18 kts 332°
2026-05-05 19:34 29.97718 -95.35638 95 ft 28 kts 332°
2026-05-05 19:34 29.97903 -95.35750 95 ft 32 kts 331°
2026-05-05 19:35 29.98262 -95.35975 96 ft 20 kts 320°
2026-05-05 19:35 29.98361 -95.36086 97 ft 20 kts 324°
2026-05-05 19:35 29.98506 -95.36176 98 ft 27 kts 331°
2026-05-05 19:35 29.98645 -95.36259 98 ft 15 kts 334°
2026-05-05 19:36 29.98727 -95.36234 99 ft 11 kts 62°
2026-05-05 19:36 29.98762 -95.36155 100 ft 11 kts 68°
2026-05-05 19:36 29.98705 -95.36087 100 ft 26 kts 153°
2026-05-05 19:36 29.98312 -95.35849 97 ft 110 kts 152°
2026-05-05 19:37 29.97389 -95.35282 157 ft 190 kts 153°
2026-05-05 19:37 29.96035 -95.34432 573 ft 252 kts 151°
2026-05-05 19:37 29.94516 -95.33677 1116 ft 222 kts 170°
2026-05-05 19:37 29.92889 -95.33745 1595 ft 232 kts 194°
2026-05-05 19:38 29.91472 -95.34431 2012 ft 232 kts 200°
2026-05-05 19:38 29.90077 -95.35381 3265 ft 232 kts 218°
2026-05-05 19:38 29.89108 -95.36875 3892 ft 238 kts 245°
2026-05-05 19:38 29.88982 -95.38681 5042 ft 219 kts 277°
2026-05-05 19:39 29.89623 -95.40234 5844 ft 224 kts 302°
2026-05-05 19:39 29.90888 -95.41598 6242 ft 263 kts 320°
2026-05-05 19:39 29.92414 -95.42568 7422 ft 243 kts 332°
2026-05-05 19:39 29.94147 -95.42920 7783 ft 275 kts
2026-05-05 19:40 29.96143 -95.42487 8655 ft 300 kts 11°
2026-05-05 19:40 29.98157 -95.41917 10364 ft 301 kts 11°
2026-05-05 19:40 30.00278 -95.41293 11424 ft 328 kts 11°
2026-05-05 19:40 30.02577 -95.40597 12417 ft 356 kts 11°
2026-05-05 19:41 30.05055 -95.39833 13456 ft 379 kts 11°
2026-05-05 19:41 30.07586 -95.39027 14876 ft 385 kts 11°
2026-05-05 19:41 30.10217 -95.38161 15925 ft 407 kts 11°
2026-05-05 19:41 30.13010 -95.37230 16008 ft 419 kts 11°
2026-05-05 19:42 30.15802 -95.36280 16004 ft 416 kts 11°
2026-05-05 19:42 30.18548 -95.35332 16925 ft 402 kts 11°
2026-05-05 19:42 30.21188 -95.34164 17700 ft 415 kts 21°
2026-05-05 19:42 30.23700 -95.32440 18519 ft 424 kts 27°
2026-05-05 19:43 30.26169 -95.30516 19336 ft 430 kts 28°
2026-05-05 19:43 30.28688 -95.28619 20100 ft 433 kts 25°
2026-05-05 19:43 30.31315 -95.26871 20959 ft 438 kts 22°
2026-05-05 19:43 30.33968 -95.25101 22071 ft 445 kts 23°
2026-05-05 19:44 30.36632 -95.23189 23079 ft 454 kts 24°
2026-05-05 19:44 30.39301 -95.21257 23942 ft 461 kts 23°
2026-05-05 19:44 30.42067 -95.19334 24755 ft 466 kts 22°
2026-05-05 19:44 30.44875 -95.17397 25545 ft 473 kts 22°
2026-05-05 19:45 30.47712 -95.15394 26319 ft 480 kts 23°
2026-05-05 19:45 30.50577 -95.13354 27071 ft 486 kts 23°
2026-05-05 19:45 30.53482 -95.11312 27812 ft 491 kts 22°
2026-05-05 19:45 30.56425 -95.09252 28514 ft 498 kts 22°
2026-05-05 19:46 30.59413 -95.07157 29208 ft 502 kts 21°
2026-05-05 19:46 30.62473 -95.05180 29877 ft 506 kts 20°
2026-05-05 19:46 30.65583 -95.03202 30430 ft 512 kts 20°
2026-05-05 19:46 30.67654 -95.01874 30802 ft 515 kts 20°
2026-05-05 19:47 30.70785 -94.99841 31571 ft 515 kts 20°
2026-05-05 19:47 30.73917 -94.97814 32312 ft 515 kts 20°
2026-05-05 19:47 30.78077 -94.95149 33258 ft 515 kts 19°
2026-05-05 19:47 30.81210 -94.93128 33967 ft 516 kts 19°
2026-05-05 19:48 30.83326 -94.91756 34407 ft 514 kts 19°
2026-05-05 19:48 30.86436 -94.89740 35184 ft 510 kts 19°
2026-05-05 19:48 30.89522 -94.87748 35961 ft 505 kts 19°
2026-05-05 19:48 30.92584 -94.85774 36730 ft 500 kts 19°
2026-05-05 19:49 30.95579 -94.83835 37473 ft 496 kts 19°
2026-05-05 19:49 30.98582 -94.81885 38238 ft 492 kts 19°
2026-05-05 19:49 31.01573 -94.79946 38886 ft 489 kts 19°
2026-05-05 19:49 31.04545 -94.78025 39388 ft 488 kts 19°
2026-05-05 19:50 31.07514 -94.76099 39872 ft 488 kts 19°
2026-05-05 19:50 31.10476 -94.74172 40352 ft 488 kts 19°
2026-05-05 19:50 31.13441 -94.72243 40825 ft 487 kts 19°
2026-05-05 19:50 31.16386 -94.70329 41297 ft 487 kts 19°
2026-05-05 19:51 31.19354 -94.68397 41762 ft 486 kts 19°
2026-05-05 19:51 31.22309 -94.66472 42220 ft 486 kts 19°
2026-05-05 19:51 31.25254 -94.64550 42674 ft 486 kts 19°
2026-05-05 19:51 31.28228 -94.62614 42859 ft 492 kts 19°
2026-05-05 19:52 31.31250 -94.60651 42862 ft 501 kts 19°
2026-05-05 19:52 31.37442 -94.56594 42872 ft 514 kts 19°
2026-05-05 19:52 31.40501 -94.54570 42857 ft 494 kts 19°
2026-05-05 19:53 31.43431 -94.52639 42846 ft 474 kts 18°
2026-05-05 19:53 31.46256 -94.50800 42841 ft 455 kts 18°
2026-05-05 19:53 31.49019 -94.48999 42838 ft 460 kts 19°
2026-05-05 19:53 31.51809 -94.47055 42843 ft 472 kts 20°
2026-05-05 19:54 31.54628 -94.45092 42842 ft 482 kts 20°
2026-05-05 19:54 31.60513 -94.41005 42853 ft 501 kts 20°
2026-05-05 19:55 31.66609 -94.36742 42864 ft 514 kts 20°
2026-05-05 19:55 31.72663 -94.32499 42383 ft 499 kts 20°
2026-05-05 19:55 31.75619 -94.30438 41978 ft 490 kts 20°
2026-05-05 19:56 31.78529 -94.28404 41579 ft 483 kts 20°
2026-05-05 19:56 31.81401 -94.26390 41192 ft 478 kts 19°
2026-05-05 19:56 31.84252 -94.24396 40806 ft 477 kts 19°
2026-05-05 19:56 31.87125 -94.22393 40431 ft 484 kts 19°
2026-05-05 19:57 31.90041 -94.20351 40060 ft 492 kts 20°
2026-05-05 19:57 31.92995 -94.18266 39706 ft 495 kts 20°
2026-05-05 19:57 31.95908 -94.16208 39367 ft 494 kts 20°
2026-05-05 19:57 31.98853 -94.14139 39025 ft 493 kts 19°
2026-05-05 19:58 32.01804 -94.12068 38689 ft 492 kts 19°
2026-05-05 19:58 32.04743 -94.09997 38325 ft 492 kts 19°
2026-05-05 19:58 32.07692 -94.07916 37923 ft 494 kts 19°
2026-05-05 19:58 32.10652 -94.05830 37538 ft 497 kts 19°
2026-05-05 19:59 32.13627 -94.03731 37116 ft 500 kts 20°
2026-05-05 19:59 32.16620 -94.01618 36628 ft 503 kts 20°
2026-05-05 19:59 32.19627 -93.99495 36142 ft 503 kts 20°
2026-05-05 19:59 32.22622 -93.97365 35666 ft 502 kts 20°
2026-05-05 20:00 32.25610 -93.95241 35204 ft 501 kts 20°
2026-05-05 20:00 32.28600 -93.93128 34743 ft 501 kts 20°
2026-05-05 20:00 32.31595 -93.91010 34287 ft 503 kts 20°
2026-05-05 20:00 32.34613 -93.88865 33833 ft 506 kts 20°
2026-05-05 20:01 32.37593 -93.86743 33333 ft 507 kts 20°
2026-05-05 20:01 32.40618 -93.84592 32838 ft 508 kts 21°
2026-05-05 20:01 32.43645 -93.82441 32348 ft 508 kts 21°
2026-05-05 20:01 32.46674 -93.80284 31869 ft 508 kts 21°
2026-05-05 20:02 32.49698 -93.78125 31389 ft 507 kts 21°
2026-05-05 20:02 32.52719 -93.75970 30926 ft 506 kts 21°
2026-05-05 20:02 32.55737 -93.73816 30466 ft 506 kts 21°
2026-05-05 20:02 32.58757 -93.71661 30012 ft 507 kts 21°
2026-05-05 20:03 32.61785 -93.69495 29503 ft 506 kts 21°
2026-05-05 20:03 32.64777 -93.67346 28972 ft 500 kts 21°
2026-05-05 20:03 32.67737 -93.65223 28447 ft 494 kts 21°
2026-05-05 20:03 32.70667 -93.63127 27939 ft 489 kts 21°
2026-05-05 20:04 32.73572 -93.61048 27434 ft 485 kts 21°
2026-05-05 20:04 32.76454 -93.58978 26941 ft 482 kts 21°
2026-05-05 20:04 32.79311 -93.56922 26465 ft 478 kts 21°
2026-05-05 20:04 32.82148 -93.54884 25988 ft 475 kts 21°
2026-05-05 20:05 32.84962 -93.52861 25513 ft 472 kts 21°
2026-05-05 20:05 32.87762 -93.50845 25052 ft 469 kts 21°
2026-05-05 20:05 32.90546 -93.48838 24589 ft 467 kts 21°
2026-05-05 20:05 32.93315 -93.46842 24146 ft 464 kts 21°
2026-05-05 20:06 32.96067 -93.44855 23699 ft 461 kts 21°
2026-05-05 20:06 32.98760 -93.42908 23240 ft 457 kts 20°
2026-05-05 20:06 33.01488 -93.41028 22706 ft 450 kts 19°
2026-05-05 20:06 33.04206 -93.39211 22188 ft 447 kts 19°
2026-05-05 20:07 33.06910 -93.37385 21679 ft 445 kts 20°
2026-05-05 20:07 33.09600 -93.35551 21181 ft 445 kts 20°
2026-05-05 20:07 33.12285 -93.33731 20689 ft 444 kts 20°
2026-05-05 20:07 33.14967 -93.31918 20204 ft 441 kts 21°
2026-05-05 20:08 33.17625 -93.30115 19727 ft 437 kts 21°
2026-05-05 20:08 33.20263 -93.28323 19264 ft 435 kts 21°
2026-05-05 20:08 33.22879 -93.26547 18803 ft 432 kts 21°
2026-05-05 20:08 33.25486 -93.24775 18347 ft 430 kts 22°
2026-05-05 20:09 33.28081 -93.23010 17875 ft 428 kts 22°
2026-05-05 20:09 33.30654 -93.21257 17359 ft 424 kts 22°
2026-05-05 20:09 33.33199 -93.19522 16857 ft 419 kts 22°
2026-05-05 20:09 33.35716 -93.17809 16359 ft 414 kts 22°
2026-05-05 20:10 33.38209 -93.16109 15868 ft 410 kts 22°
2026-05-05 20:10 33.40675 -93.14426 15389 ft 406 kts 22°
2026-05-05 20:10 33.43059 -93.12606 14895 ft 411 kts 33°
2026-05-05 20:10 33.44946 -93.09985 14394 ft 420 kts 52°
2026-05-05 20:11 33.46419 -93.06971 13937 ft 418 kts 57°
2026-05-05 20:11 33.47735 -93.03937 13479 ft 412 kts 59°
2026-05-05 20:11 33.49112 -93.01027 12965 ft 393 kts 53°
2026-05-05 20:11 33.50591 -92.98344 12459 ft 377 kts 51°
2026-05-05 20:12 33.52052 -92.95791 11957 ft 366 kts 50°
2026-05-05 20:12 33.53484 -92.93315 11461 ft 356 kts 50°
2026-05-05 20:12 33.54886 -92.90904 10976 ft 348 kts 50°
2026-05-05 20:12 33.56264 -92.88544 10495 ft 342 kts 50°
2026-05-05 20:13 33.57611 -92.86258 10025 ft 337 kts 50°
2026-05-05 20:13 33.58962 -92.83985 9554 ft 332 kts 50°
2026-05-05 20:13 33.60306 -92.81747 9039 ft 328 kts 50°
2026-05-05 20:13 33.61645 -92.79549 8538 ft 324 kts 50°
2026-05-05 20:14 33.62977 -92.77394 8048 ft 320 kts 51°
2026-05-05 20:14 33.64314 -92.75273 7560 ft 317 kts 50°
2026-05-05 20:14 33.65654 -92.73189 7090 ft 314 kts 50°
2026-05-05 20:14 33.66999 -92.71141 6618 ft 311 kts 50°
2026-05-05 20:15 33.68349 -92.69123 6163 ft 309 kts 50°
2026-05-05 20:15 33.69673 -92.67175 6087 ft 295 kts 50°
2026-05-05 20:15 33.70991 -92.65246 6079 ft 303 kts 50°
2026-05-05 20:15 33.72322 -92.63304 6081 ft 307 kts 50°
2026-05-05 20:16 33.73705 -92.61300 6086 ft 310 kts 50°
2026-05-05 20:16 33.75064 -92.59338 6083 ft 308 kts 50°
2026-05-05 20:16 33.76427 -92.57372 6093 ft 305 kts 50°
2026-05-05 20:16 33.77794 -92.55413 6086 ft 307 kts 50°
2026-05-05 20:17 33.79168 -92.53445 6089 ft 307 kts 50°
2026-05-05 20:17 33.80544 -92.51479 6088 ft 307 kts 50°
2026-05-05 20:17 33.81919 -92.49513 6094 ft 307 kts 50°
2026-05-05 20:17 33.83299 -92.47542 6093 ft 308 kts 50°
2026-05-05 20:18 33.84675 -92.45576 6096 ft 306 kts 50°
2026-05-05 20:18 33.86052 -92.43618 6099 ft 308 kts 50°
2026-05-05 20:18 33.87436 -92.41646 6094 ft 308 kts 50°
2026-05-05 20:18 33.88818 -92.39678 6101 ft 307 kts 49°
2026-05-05 20:19 33.90198 -92.37714 6099 ft 307 kts 50°
2026-05-05 20:19 33.91574 -92.35751 6102 ft 306 kts 49°
2026-05-05 20:19 33.92949 -92.33788 6101 ft 307 kts 50°
2026-05-05 20:19 33.94332 -92.31809 6109 ft 310 kts 50°
2026-05-05 20:20 33.95716 -92.29832 6107 ft 308 kts 50°
2026-05-05 20:20 33.97100 -92.27855 6106 ft 308 kts 50°
2026-05-05 20:20 33.98485 -92.25875 6110 ft 309 kts 49°
2026-05-05 20:20 33.99850 -92.23918 6109 ft 309 kts 50°
2026-05-05 20:21 34.01239 -92.21940 6113 ft 308 kts 49°
2026-05-05 20:21 34.02638 -92.19976 6107 ft 309 kts 46°
2026-05-05 20:21 34.04191 -92.18189 6111 ft 309 kts 40°
2026-05-05 20:21 34.05804 -92.16475 6107 ft 309 kts 40°
2026-05-05 20:22 34.07427 -92.14776 6112 ft 309 kts 39°
2026-05-05 20:22 34.09047 -92.13080 6109 ft 309 kts 39°
2026-05-05 20:22 34.10676 -92.11371 6114 ft 311 kts 39°
2026-05-05 20:22 34.12313 -92.09664 6107 ft 311 kts 39°
2026-05-05 20:23 34.13956 -92.07960 6108 ft 310 kts 39°
2026-05-05 20:23 34.15586 -92.06269 6104 ft 309 kts 40°
2026-05-05 20:23 34.17216 -92.04586 6108 ft 307 kts 39°
2026-05-05 20:23 34.18841 -92.02905 6105 ft 309 kts 39°
2026-05-05 20:24 34.20482 -92.01218 6107 ft 310 kts 39°
2026-05-05 20:24 34.22122 -91.99533 6108 ft 309 kts 39°
2026-05-05 20:24 34.23761 -91.97845 6107 ft 310 kts 39°
2026-05-05 20:24 34.25405 -91.96148 6106 ft 310 kts 39°
2026-05-05 20:25 34.27024 -91.94483 6104 ft 310 kts 39°
2026-05-05 20:25 34.28667 -91.92789 6107 ft 309 kts 39°
2026-05-05 20:25 34.30299 -91.91103 6109 ft 309 kts 39°
2026-05-05 20:25 34.31931 -91.89418 6108 ft 308 kts 39°
2026-05-05 20:26 34.33563 -91.87733 6112 ft 309 kts 39°
2026-05-05 20:26 34.35196 -91.86045 6108 ft 308 kts 39°
2026-05-05 20:26 34.36831 -91.84356 6110 ft 309 kts 39°
2026-05-05 20:26 34.38457 -91.82669 6109 ft 308 kts 39°
2026-05-05 20:27 34.40286 -91.81413 5804 ft 299 kts 11°
2026-05-05 20:27 34.42282 -91.81457 5426 ft 282 kts 337°
2026-05-05 20:27 34.43954 -91.82574 5057 ft 273 kts 318°
2026-05-05 20:27 34.45516 -91.83898 4701 ft 276 kts 321°
2026-05-05 20:28 34.47231 -91.84993 4333 ft 282 kts 331°
2026-05-05 20:28 34.49089 -91.85803 4044 ft 284 kts 336°
2026-05-05 20:28 34.50912 -91.86603 3759 ft 280 kts 333°
2026-05-05 20:28 34.52718 -91.87510 3460 ft 277 kts 331°
2026-05-05 20:29 34.54487 -91.88404 3270 ft 279 kts 332°
2026-05-05 20:29 34.56290 -91.89280 3152 ft 278 kts 333°
2026-05-05 20:29 34.58043 -91.90121 3025 ft 263 kts 333°
2026-05-05 20:29 34.59703 -91.90933 2894 ft 253 kts 332°
2026-05-05 20:30 34.61329 -91.91737 2756 ft 254 kts 333°
2026-05-05 20:30 34.62978 -91.92546 2628 ft 255 kts 333°
2026-05-05 20:30 34.64621 -91.93348 2502 ft 254 kts 332°
2026-05-05 20:30 34.66256 -91.94146 2498 ft 253 kts 332°
2026-05-05 20:31 34.67902 -91.94957 2495 ft 255 kts 332°
2026-05-05 20:31 34.69537 -91.95759 2493 ft 252 kts 332°
2026-05-05 20:31 34.71165 -91.96557 2495 ft 252 kts 333°
2026-05-05 20:31 34.72770 -91.97341 2491 ft 246 kts 333°
2026-05-05 20:32 34.74375 -91.98132 2372 ft 250 kts 332°
2026-05-05 20:32 34.75987 -91.98927 2259 ft 249 kts 333°
2026-05-05 20:32 34.77587 -91.99704 2180 ft 245 kts 333°
2026-05-05 20:32 34.79161 -92.00494 2178 ft 251 kts 331°
2026-05-05 20:33 34.80485 -92.01782 2182 ft 240 kts 297°
2026-05-05 20:33 34.80865 -92.03635 2190 ft 221 kts 262°
2026-05-05 20:33 34.80726 -92.05504 2188 ft 224 kts 259°
2026-05-05 20:33 34.80661 -92.07411 2193 ft 226 kts 264°
2026-05-05 20:34 34.80648 -92.09319 2195 ft 224 kts 264°
2026-05-05 20:34 34.80585 -92.11192 2154 ft 218 kts 257°
2026-05-05 20:34 34.80345 -92.12373 2062 ft 209 kts 247°
2026-05-05 20:34 34.79773 -92.13922 1921 ft 200 kts 236°
2026-05-05 20:35 34.78980 -92.15208 1735 ft 172 kts 226°
2026-05-05 20:35 34.78206 -92.16177 1432 ft 152 kts 225°
2026-05-05 20:35 34.77525 -92.17110 1050 ft 145 kts 223°
2026-05-05 20:35 34.76843 -92.17993 800 ft 138 kts 221°
2026-05-05 20:36 34.76187 -92.18860 627 ft 140 kts 222°
2026-05-05 20:36 34.75488 -92.19681 522 ft 143 kts 221°
2026-05-05 20:36 34.74793 -92.20582 471 ft 148 kts 223°
2026-05-05 20:36 34.74065 -92.21495 353 ft 150 kts 223°
2026-05-05 20:37 34.73386 -92.22375 262 ft 129 kts 223°
2026-05-05 20:37 34.73084 -92.22739 259 ft 34 kts 232°
2026-05-05 20:37 34.72910 -92.22962 256 ft 38 kts 226°
2026-05-05 20:37 34.72719 -92.23204 258 ft 41 kts 227°
2026-05-05 20:38 34.72582 -92.23364 258 ft 20 kts 199°
2026-05-05 20:38 34.72501 -92.23383 259 ft 0 kts 159°
2026-05-05 20:38 34.72501 -92.23382 259 ft 1 kts 156°
2026-05-05 20:38 34.72494 -92.23307 260 ft 21 kts 66°
2026-05-05 20:39 34.72619 -92.23136 261 ft 33 kts 49°
2026-05-05 20:39 34.72751 -92.22970 259 ft 18 kts 45°
2026-05-05 20:39 34.72757 -92.22862 260 ft 14 kts 135°
2026-05-05 20:39 34.72683 -92.22764 260 ft 18 kts 108°
2026-05-05 20:40 34.72677 -92.22620 261 ft 14 kts 90°
2026-05-05 20:40 34.72677 -92.22601 261 ft 0 kts 90°